Lid_Strength_Index
18 18 18 18 17 17 17 16 17 15 17 15 14 14 13 13 13 12 12 11 10 10 10 10 9 9 9 8 8 8 7 7 7 6 5 5 5 4 3 3 2 2 3 3
19 17 17 18 17 16 17 16 17 16 17 13 13 13 14 13 13 12 11 11 10 11 10 10 10 10 9 9 8 7 7 7 7 7 6 6 5 5 3 3 3 2 3 3
20 19 19 20 18 17 16 16 16 18 15 14 15 14 13 13 12 12 11 11 11 11 11 10 10 9 9 8 8 7 7 7 7 7 7 6 6 5 4 3 3 2 3 3
20 19 21 15 15 15 16 15 15 15 14 14 14 13 12 11 11 11 12 12 11 11 11 10 9 9 8 8 7 7 7 7 7 7 7 7 6 6 4 3 4 3 3 3
21 22 18 16 16 16 17 16 14 14 13 13 13 13 12 11 11 11 11 11 11 10 10 10 9 8 8 8 7 7 7 7 7 7 7 7 7 6 5 4 4 4 3 3
21 23 23 16 14 13 13 17 13 13 13 13 13 14 12 11 11 11 11 10 11 10 10 10 8 8 8 8 7 8 8 7 6 6 6 7 7 6 4 4 4 4 4 3
18 20 18 14 13 12 17 14 13 12 12 12 12 11 11 10 11 11 11 11 10 10 10 9 8 8 8 8 8 7 7 6 6 6 6 6 6 5 4 4 5 4 4 4
18 20 20 12 13 14 12 12 12 12 11 11 11 11 11 11 12 11 11 11 10 10 10 8 8 8 8 8 7 7 6 6 6 6 6 6 5 4 4 4 6 6 6 5
16 16 12 11 11 10 11 11 11 11 10 11 11 12 12 12 12 12 11 11 10 10 10 8 7 7 8 7 7 7 7 7 6 6 6 6 5 5 5 5 5 5 5 5
15 13 12 11 10 10 11 11 10 10 10 11 12 12 12 12 12 12 11 11 10 10 10 9 8 7 7 7 7 7 7 7 6 6 6 5 5 4 5 5 5 6 5 5
15 12 11 10 10 10 10 10 10 10 11 12 12 12 12 12 12 12 11 10 10 10 9 9 7 7 7 7 7 7 7 6 6 6 6 5 4 4 4 4 5 6 6 7
12 9 11 10 10 10 11 10 10 11 12 12 12 12 12 12 11 11 11 11 10 9 9 8 8 8 7 7 7 7 7 6 6 6 5 5 5 6 4 4 4 5 4 5
10 9 11 10 10 9 10 10 10 11 11 12 11 11 11 12 11 10 11 11 10 9 9 8 8 8 8 7 7 7 7 6 6 6 6 7 6 7 8 6 5 5 5 5
9 10 11 10 10 10 10 10 9 11 11 11 11 11 11 12 11 11 11 10 10 9 8 8 8 8 8 7 7 7 7 6 7 7 7 7 7 8 8 9 9 8 6 5
10 10 9 9 10 10 11 11 11 12 12 12 11 12 12 12 12 11 10 10 10 10 8 9 9 8 7 7 7 7 7 7 7 7 8 7 7 7 8 8 9 8 5 4
10 10 10 11 11 11 12 12 12 12 12 12 12 12 11 11 11 11 11 10 10 10 9 9 9 8 7 7 7 7 8 7 7 8 9 8 7 8 8 8 8 7 7 7
10 10 11 12 12 12 12 11 11 12 12 12 12 11 11 11 11 11 11 10 10 9 9 9 9 8 7 7 7 8 9 9 8 9 9 9 8 8 7 7 7 7 7 7
9 9 9 10 11 12 12 11 11 11 12 11 11 11 12 12 12 12 11 10 10 10 9 9 8 7 7 7 7 8 9 9 10 10 10 10 9 8 8 8 8 9 9 8
9 10 10 10 10 11 11 11 11 11 11 11 11 12 12 12 12 11 11 11 11 11 10 9 7 8 7 7 7 9 10 10 10 10 10 9 9 8 8 8 9 9 9 9
9 9 10 10 10 11 11 11 11 11 10 11 11 12 12 12 11 11 11 11 11 11 9 9 9 8 8 8 7 9 10 10 10 10 10 10 10 9 9 9 10 10 10 10
8 9 10 10 10 10 10 11 11 11 10 11 11 10 12 11 11 11 11 11 10 9 8 9 9 8 8 8 8 10 10 11 11 11 10 10 10 11 10 10 10 10 10 10
9 10 10 11 11 11 11 10 11 10 10 10 10 9 11 11 11 11 11 11 9 8 9 10 10 8 8 8 10 10 11 11 11 11 11 11 11 12 12 12 11 10 10 10
9 10 10 10 11 10 10 11 11 10 10 10 10 9 10 10 10 11 12 10 9 9 10 11 9 8 8 9 10 11 11 12 12 12 12 12 12 12 12 12 12 11 11 11
9 10 10 10 10 11 11 11 11 10 10 9 9 8 10 10 10 10 10 9 8 9 10 10 9 9 9 10 10 11 11 12 12 12 12 11 12 12 12 12 12 11 11 11
9 9 9 10 11 10 10 11 11 10 10 9 9 8 9 9 10 10 10 9 9 10 11 10 10 10 11 11 11 11 11 11 12 12 12 12 12 12 13 12 12 12 11 11
10 9 9 9 9 9 10 11 11 10 10 10 9 9 9 10 10 10 10 9 10 10 11 11 11 11 11 11 11 11 11 11 12 12 12 12 12 12 12 12 12 12 12 12
9 8 9 10 9 9 10 10 11 11 9 9 9 9 10 10 10 9 9 10 10 11 11 11 12 11 11 12 12 11 11 11 12 12 13 13 12 12 12 12 12 12 12 11